Data supplied by UK-AIR on 5/4/2008
All Data GMT hour ending 
Status: R =Ratified P=Provisional,P*=As supplied
,,West London,,,,,,,,,,,,,,,,,,,,,,,
Date,time,"Carbon monoxide",status,unit,"Nitric oxide",status,unit,"Nitrogen dioxide",status,unit,"Nitrogen oxides as nitrogen dioxide",status,unit
 
01-01-1989,01:00,,,,144,R,ugm-3,103,R,ugm-3,323,R,ugm-3
01-01-1989,02:00,,,,18,R,ugm-3,69,R,ugm-3,96,R,ugm-3
01-01-1989,03:00,,,,140,R,ugm-3,88,R,ugm-3,302,R,ugm-3
01-01-1989,04:00,,,,115,R,ugm-3,76,R,ugm-3,252,R,ugm-3
01-01-1989,05:00,,,,83,R,ugm-3,86,R,ugm-3,212,R,ugm-3
01-01-1989,06:00,,,,50,R,ugm-3,80,R,ugm-3,157,R,ugm-3
01-01-1989,07:00,,,,21,R,ugm-3,78,R,ugm-3,111,R,ugm-3
01-01-1989,08:00,,,,25,R,ugm-3,82,R,ugm-3,120,R,ugm-3
01-01-1989,09:00,,,,25,R,ugm-3,78,R,ugm-3,117,R,ugm-3
01-01-1989,10:00,,,,14,R,ugm-3,63,R,ugm-3,84,R,ugm-3
01-01-1989,11:00,,,,0,R,ugm-3,61,R,ugm-3,61,R,ugm-3
01-01-1989,12:00,,,,4,R,ugm-3,55,R,ugm-3,61,R,ugm-3
01-01-1989,13:00,,,,11,R,ugm-3,59,R,ugm-3,76,R,ugm-3
01-01-1989,14:00,,,,4,R,ugm-3,55,R,ugm-3,61,R,ugm-3
01-01-1989,15:00,,,,8,R,ugm-3,65,R,ugm-3,76,R,ugm-3
01-01-1989,16:00,,,,8,R,ugm-3,65,R,ugm-3,76,R,ugm-3
01-01-1989,17:00,,,,11,R,ugm-3,65,R,ugm-3,82,R,ugm-3
01-01-1989,18:00,,,,11,R,ugm-3,53,R,ugm-3,71,R,ugm-3
01-01-1989,19:00,,,,18,R,ugm-3,53,R,ugm-3,80,R,ugm-3
01-01-1989,20:00,,,,4,R,ugm-3,59,R,ugm-3,65,R,ugm-3
01-01-1989,21:00,,,,11,R,ugm-3,53,R,ugm-3,71,R,ugm-3
01-01-1989,22:00,,,,21,R,ugm-3,63,R,ugm-3,96,R,ugm-3
01-01-1989,23:00,,,,29,R,ugm-3,67,R,ugm-3,111,R,ugm-3
01-01-1989,24:00,,,,11,R,ugm-3,65,R,ugm-3,82,R,ugm-3
02-01-1989,01:00,,,,25,R,ugm-3,67,R,ugm-3,105,R,ugm-3
02-01-1989,02:00,,,,10,R,ugm-3,55,R,ugm-3,71,R,ugm-3
02-01-1989,03:00,,,,3,R,ugm-3,42,R,ugm-3,46,R,ugm-3
02-01-1989,04:00,,,,0,R,ugm-3,40,R,ugm-3,40,R,ugm-3
02-01-1989,05:00,,,,0,R,ugm-3,38,R,ugm-3,38,R,ugm-3
02-01-1989,06:00,,,,0,R,ugm-3,40,R,ugm-3,40,R,ugm-3
02-01-1989,07:00,,,,3,R,ugm-3,44,R,ugm-3,48,R,ugm-3
02-01-1989,08:00,,,,10,R,ugm-3,53,R,ugm-3,69,R,ugm-3
02-01-1989,09:00,,,,28,R,ugm-3,61,R,ugm-3,103,R,ugm-3
02-01-1989,10:00,,,,31,R,ugm-3,57,R,ugm-3,105,R,ugm-3
02-01-1989,11:00,,,,38,R,ugm-3,59,R,ugm-3,117,R,ugm-3
02-01-1989,12:00,,,,41,R,ugm-3,55,R,ugm-3,118,R,ugm-3
02-01-1989,13:00,,,,53,R,ugm-3,55,R,ugm-3,136,R,ugm-3
02-01-1989,14:00,,,,38,R,ugm-3,53,R,ugm-3,111,R,ugm-3
02-01-1989,15:00,,,,54,R,ugm-3,67,R,ugm-3,149,R,ugm-3
02-01-1989,16:00,,,,55,R,ugm-3,65,R,ugm-3,149,R,ugm-3
02-01-1989,17:00,,,,100,R,ugm-3,71,R,ugm-3,223,R,ugm-3
02-01-1989,18:00,,,,141,R,ugm-3,71,R,ugm-3,287,R,ugm-3
02-01-1989,19:00,,,,149,R,ugm-3,67,R,ugm-3,294,R,ugm-3
02-01-1989,20:00,,,,144,R,ugm-3,67,R,ugm-3,287,R,ugm-3
02-01-1989,21:00,,,,138,R,ugm-3,71,R,ugm-3,281,R,ugm-3
02-01-1989,22:00,,,,103,R,ugm-3,67,R,ugm-3,223,R,ugm-3
02-01-1989,23:00,,,,74,R,ugm-3,63,R,ugm-3,176,R,ugm-3
02-01-1989,24:00,,,,39,R,ugm-3,55,R,ugm-3,115,R,ugm-3
03-01-1989,01:00,,,,16,R,ugm-3,48,R,ugm-3,73,R,ugm-3
03-01-1989,02:00,,,,8,R,ugm-3,38,R,ugm-3,50,R,ugm-3
03-01-1989,03:00,,,,5,R,ugm-3,32,R,ugm-3,40,R,ugm-3
03-01-1989,04:00,,,,3,R,ugm-3,29,R,ugm-3,32,R,ugm-3
03-01-1989,05:00,,,,4,R,ugm-3,29,R,ugm-3,34,R,ugm-3
03-01-1989,06:00,,,,8,R,ugm-3,38,R,ugm-3,50,R,ugm-3
03-01-1989,07:00,,,,28,R,ugm-3,53,R,ugm-3,96,R,ugm-3
03-01-1989,08:00,,,,78,R,ugm-3,69,R,ugm-3,187,R,ugm-3
03-01-1989,09:00,,,,128,R,ugm-3,73,R,ugm-3,267,R,ugm-3
03-01-1989,10:00,,,,119,R,ugm-3,65,R,ugm-3,246,R,ugm-3
03-01-1989,11:00,,,,116,R,ugm-3,65,R,ugm-3,243,R,ugm-3
03-01-1989,12:00,,,,106,R,ugm-3,63,R,ugm-3,225,R,ugm-3
03-01-1989,13:00,,,,74,R,ugm-3,65,R,ugm-3,178,R,ugm-3
03-01-1989,14:00,,,,48,R,ugm-3,55,R,ugm-3,128,R,ugm-3
03-01-1989,15:00,,,,43,R,ugm-3,55,R,ugm-3,120,R,ugm-3
03-01-1989,16:00,,,,43,R,ugm-3,57,R,ugm-3,122,R,ugm-3
03-01-1989,17:00,,,,43,R,ugm-3,57,R,ugm-3,122,R,ugm-3
03-01-1989,18:00,,,,54,R,ugm-3,59,R,ugm-3,141,R,ugm-3
03-01-1989,19:00,,,,64,R,ugm-3,57,R,ugm-3,155,R,ugm-3
03-01-1989,20:00,,,,60,R,ugm-3,59,R,ugm-3,151,R,ugm-3
03-01-1989,21:00,,,,41,R,ugm-3,55,R,ugm-3,118,R,ugm-3
03-01-1989,22:00,,,,25,R,ugm-3,50,R,ugm-3,88,R,ugm-3
03-01-1989,23:00,,,,24,R,ugm-3,48,R,ugm-3,84,R,ugm-3
03-01-1989,24:00,,,,11,R,ugm-3,34,R,ugm-3,52,R,ugm-3
04-01-1989,01:00,,,,6,R,ugm-3,25,R,ugm-3,34,R,ugm-3
04-01-1989,02:00,,,,5,R,ugm-3,19,R,ugm-3,27,R,ugm-3
04-01-1989,03:00,,,,3,R,ugm-3,19,R,ugm-3,23,R,ugm-3
04-01-1989,04:00,,,,3,R,ugm-3,17,R,ugm-3,21,R,ugm-3
04-01-1989,05:00,,,,4,R,ugm-3,19,R,ugm-3,25,R,ugm-3
04-01-1989,06:00,,,,6,R,ugm-3,21,R,ugm-3,31,R,ugm-3
04-01-1989,07:00,,,,28,R,ugm-3,36,R,ugm-3,78,R,ugm-3
04-01-1989,08:00,,,,36,R,ugm-3,50,R,ugm-3,105,R,ugm-3
04-01-1989,09:00,,,,120,R,ugm-3,99,R,ugm-3,283,R,ugm-3
04-01-1989,10:00,,,,90,R,ugm-3,80,R,ugm-3,218,R,ugm-3
04-01-1989,11:00,,,,54,R,ugm-3,78,R,ugm-3,160,R,ugm-3
04-01-1989,12:00,,,,105,R,ugm-3,90,R,ugm-3,250,R,ugm-3
04-01-1989,13:00,,,,86,R,ugm-3,88,R,ugm-3,220,R,ugm-3
04-01-1989,14:00,,,,26,R,ugm-3,57,R,ugm-3,97,R,ugm-3
04-01-1989,15:00,,,,36,R,ugm-3,63,R,ugm-3,118,R,ugm-3
04-01-1989,16:00,,,,43,R,ugm-3,76,R,ugm-3,141,R,ugm-3
04-01-1989,17:00,,,,100,R,ugm-3,92,R,ugm-3,244,R,ugm-3
04-01-1989,18:00,,,,114,R,ugm-3,84,R,ugm-3,258,R,ugm-3
04-01-1989,19:00,,,,93,R,ugm-3,78,R,ugm-3,220,R,ugm-3
04-01-1989,20:00,,,,84,R,ugm-3,78,R,ugm-3,206,R,ugm-3
04-01-1989,21:00,,,,74,R,ugm-3,76,R,ugm-3,189,R,ugm-3
04-01-1989,22:00,,,,60,R,ugm-3,71,R,ugm-3,162,R,ugm-3
04-01-1989,23:00,,,,33,R,ugm-3,67,R,ugm-3,117,R,ugm-3
04-01-1989,24:00,,,,26,R,ugm-3,65,R,ugm-3,105,R,ugm-3
05-01-1989,01:00,,,,29,R,ugm-3,69,R,ugm-3,113,R,ugm-3
05-01-1989,02:00,,,,14,R,ugm-3,59,R,ugm-3,80,R,ugm-3
05-01-1989,03:00,,,,5,R,ugm-3,48,R,ugm-3,55,R,ugm-3
05-01-1989,04:00,,,,6,R,ugm-3,46,R,ugm-3,55,R,ugm-3
05-01-1989,05:00,,,,4,R,ugm-3,38,R,ugm-3,44,R,ugm-3
05-01-1989,06:00,,,,20,R,ugm-3,50,R,ugm-3,80,R,ugm-3
05-01-1989,07:00,,,,61,R,ugm-3,63,R,ugm-3,157,R,ugm-3
05-01-1989,08:00,,,,184,R,ugm-3,96,R,ugm-3,376,R,ugm-3
05-01-1989,09:00,,,,374,R,ugm-3,170,R,ugm-3,741,R,ugm-3
05-01-1989,10:00,,,,283,R,ugm-3,111,R,ugm-3,542,R,ugm-3
05-01-1989,11:00,,,,471,R,ugm-3,214,R,ugm-3,934,R,ugm-3
05-01-1989,12:00,,,,371,R,ugm-3,202,R,ugm-3,770,R,ugm-3
05-01-1989,13:00,,,,271,R,ugm-3,181,R,ugm-3,596,R,ugm-3
05-01-1989,14:00,,,,151,R,ugm-3,115,R,ugm-3,346,R,ugm-3
05-01-1989,15:00,,,,163,R,ugm-3,109,R,ugm-3,357,R,ugm-3
05-01-1989,16:00,,,,104,R,ugm-3,80,R,ugm-3,239,R,ugm-3
05-01-1989,17:00,,,,73,R,ugm-3,76,R,ugm-3,187,R,ugm-3
05-01-1989,18:00,,,,50,R,ugm-3,76,R,ugm-3,153,R,ugm-3
05-01-1989,19:00,,,,21,R,ugm-3,67,R,ugm-3,99,R,ugm-3
05-01-1989,20:00,,,,16,R,ugm-3,57,R,ugm-3,82,R,ugm-3
05-01-1989,21:00,,,,18,R,ugm-3,61,R,ugm-3,88,R,ugm-3
05-01-1989,22:00,,,,20,R,ugm-3,59,R,ugm-3,90,R,ugm-3
05-01-1989,23:00,,,,21,R,ugm-3,59,R,ugm-3,92,R,ugm-3
05-01-1989,24:00,,,,18,R,ugm-3,52,R,ugm-3,78,R,ugm-3
06-01-1989,01:00,,,,14,R,ugm-3,48,R,ugm-3,69,R,ugm-3
06-01-1989,02:00,,,,9,R,ugm-3,42,R,ugm-3,55,R,ugm-3
06-01-1989,03:00,,,,13,R,ugm-3,46,R,ugm-3,65,R,ugm-3
06-01-1989,04:00,,,,5,R,ugm-3,40,R,ugm-3,48,R,ugm-3
06-01-1989,05:00,,,,11,R,ugm-3,53,R,ugm-3,71,R,ugm-3
06-01-1989,06:00,,,,45,R,ugm-3,59,R,ugm-3,128,R,ugm-3
06-01-1989,07:00,,,,85,R,ugm-3,69,R,ugm-3,199,R,ugm-3
06-01-1989,08:00,,,,131,R,ugm-3,94,R,ugm-3,294,R,ugm-3
06-01-1989,09:00,,,,173,R,ugm-3,90,R,ugm-3,353,R,ugm-3
06-01-1989,10:00,,,,194,R,ugm-3,88,R,ugm-3,384,R,ugm-3
06-01-1989,11:00,,,,268,R,ugm-3,105,R,ugm-3,514,R,ugm-3
06-01-1989,12:00,,,,163,R,ugm-3,92,R,ugm-3,340,R,ugm-3
06-01-1989,13:00,,,,154,R,ugm-3,94,R,ugm-3,329,R,ugm-3
06-01-1989,14:00,,,,71,R,ugm-3,76,R,ugm-3,185,R,ugm-3
06-01-1989,15:00,,,,81,R,ugm-3,80,R,ugm-3,204,R,ugm-3
06-01-1989,16:00,,,,105,R,ugm-3,67,R,ugm-3,227,R,ugm-3
06-01-1989,17:00,,,,141,R,ugm-3,71,R,ugm-3,287,R,ugm-3
06-01-1989,18:00,,,,139,R,ugm-3,65,R,ugm-3,277,R,ugm-3
06-01-1989,19:00,,,,114,R,ugm-3,63,R,ugm-3,237,R,ugm-3
06-01-1989,20:00,,,,55,R,ugm-3,55,R,ugm-3,139,R,ugm-3
06-01-1989,21:00,,,,73,R,ugm-3,59,R,ugm-3,170,R,ugm-3
06-01-1989,22:00,,,,83,R,ugm-3,59,R,ugm-3,185,R,ugm-3
06-01-1989,23:00,,,,119,R,ugm-3,63,R,ugm-3,244,R,ugm-3
06-01-1989,24:00,,,,115,R,ugm-3,61,R,ugm-3,237,R,ugm-3
07-01-1989,01:00,,,,100,R,ugm-3,59,R,ugm-3,212,R,ugm-3
07-01-1989,02:00,,,,86,R,ugm-3,57,R,ugm-3,189,R,ugm-3
07-01-1989,03:00,,,,50,R,ugm-3,55,R,ugm-3,132,R,ugm-3
07-01-1989,04:00,,,,21,R,ugm-3,52,R,ugm-3,84,R,ugm-3
07-01-1989,05:00,,,,10,R,ugm-3,42,R,ugm-3,57,R,ugm-3
07-01-1989,06:00,,,,4,R,ugm-3,40,R,ugm-3,46,R,ugm-3
07-01-1989,07:00,,,,26,R,ugm-3,48,R,ugm-3,88,R,ugm-3
07-01-1989,08:00,,,,64,R,ugm-3,55,R,ugm-3,153,R,ugm-3
07-01-1989,09:00,,,,124,R,ugm-3,76,R,ugm-3,265,R,ugm-3
07-01-1989,10:00,,,,135,R,ugm-3,74,R,ugm-3,281,R,ugm-3
07-01-1989,11:00,,,,125,R,ugm-3,78,R,ugm-3,269,R,ugm-3
07-01-1989,12:00,,,,155,R,ugm-3,96,R,ugm-3,332,R,ugm-3
07-01-1989,13:00,,,,69,R,ugm-3,63,R,ugm-3,168,R,ugm-3
07-01-1989,14:00,,,,61,R,ugm-3,59,R,ugm-3,153,R,ugm-3
07-01-1989,15:00,,,,83,R,ugm-3,65,R,ugm-3,191,R,ugm-3
07-01-1989,16:00,,,,61,R,ugm-3,59,R,ugm-3,153,R,ugm-3
07-01-1989,17:00,,,,76,R,ugm-3,61,R,ugm-3,178,R,ugm-3
07-01-1989,18:00,,,,73,R,ugm-3,59,R,ugm-3,170,R,ugm-3
07-01-1989,19:00,,,,84,R,ugm-3,57,R,ugm-3,185,R,ugm-3
07-01-1989,20:00,,,,126,R,ugm-3,57,R,ugm-3,250,R,ugm-3
07-01-1989,21:00,,,,136,R,ugm-3,53,R,ugm-3,262,R,ugm-3
07-01-1989,22:00,,,,75,R,ugm-3,55,R,ugm-3,170,R,ugm-3
07-01-1989,23:00,,,,49,R,ugm-3,53,R,ugm-3,128,R,ugm-3
07-01-1989,24:00,,,,60,R,ugm-3,52,R,ugm-3,143,R,ugm-3
08-01-1989,01:00,,,,79,R,ugm-3,48,R,ugm-3,168,R,ugm-3
08-01-1989,02:00,,,,46,R,ugm-3,38,R,ugm-3,109,R,ugm-3
08-01-1989,03:00,,,,25,R,ugm-3,38,R,ugm-3,76,R,ugm-3
08-01-1989,04:00,,,,18,R,ugm-3,36,R,ugm-3,63,R,ugm-3
08-01-1989,05:00,,,,14,R,ugm-3,38,R,ugm-3,59,R,ugm-3
08-01-1989,06:00,,,,9,R,ugm-3,32,R,ugm-3,46,R,ugm-3
08-01-1989,07:00,,,,10,R,ugm-3,32,R,ugm-3,48,R,ugm-3
08-01-1989,08:00,,,,20,R,ugm-3,36,R,ugm-3,67,R,ugm-3
08-01-1989,09:00,,,,38,R,ugm-3,38,R,ugm-3,96,R,ugm-3
08-01-1989,10:00,,,,50,R,ugm-3,40,R,ugm-3,117,R,ugm-3
08-01-1989,11:00,,,,93,R,ugm-3,46,R,ugm-3,187,R,ugm-3
08-01-1989,12:00,,,,76,R,ugm-3,46,R,ugm-3,162,R,ugm-3
08-01-1989,13:00,,,,76,R,ugm-3,48,R,ugm-3,164,R,ugm-3
08-01-1989,14:00,,,,69,R,ugm-3,48,R,ugm-3,153,R,ugm-3
08-01-1989,15:00,,,,69,R,ugm-3,48,R,ugm-3,153,R,ugm-3
08-01-1989,16:00,,,,59,R,ugm-3,46,R,ugm-3,136,R,ugm-3
08-01-1989,17:00,,,,74,R,ugm-3,48,R,ugm-3,160,R,ugm-3
08-01-1989,18:00,,,,75,R,ugm-3,42,R,ugm-3,157,R,ugm-3
08-01-1989,19:00,,,,84,R,ugm-3,42,R,ugm-3,170,R,ugm-3
08-01-1989,20:00,,,,69,R,ugm-3,42,R,ugm-3,147,R,ugm-3
08-01-1989,21:00,,,,53,R,ugm-3,40,R,ugm-3,120,R,ugm-3
08-01-1989,22:00,,,,54,R,ugm-3,42,R,ugm-3,124,R,ugm-3
08-01-1989,23:00,,,,43,R,ugm-3,44,R,ugm-3,109,R,ugm-3
08-01-1989,24:00,,,,24,R,ugm-3,40,R,ugm-3,76,R,ugm-3
09-01-1989,01:00,,,,16,R,ugm-3,29,R,ugm-3,53,R,ugm-3
09-01-1989,02:00,,,,6,R,ugm-3,23,R,ugm-3,32,R,ugm-3
09-01-1989,03:00,,,,4,R,ugm-3,13,R,ugm-3,19,R,ugm-3
09-01-1989,04:00,,,,4,R,ugm-3,10,R,ugm-3,15,R,ugm-3
09-01-1989,05:00,,,,4,R,ugm-3,13,R,ugm-3,19,R,ugm-3
09-01-1989,06:00,,,,6,R,ugm-3,17,R,ugm-3,27,R,ugm-3
09-01-1989,07:00,,,,16,R,ugm-3,31,R,ugm-3,55,R,ugm-3
09-01-1989,08:00,,,,160,R,ugm-3,96,R,ugm-3,340,R,ugm-3
09-01-1989,09:00,,,,134,R,ugm-3,76,R,ugm-3,281,R,ugm-3
09-01-1989,10:00,,,,273,R,ugm-3,117,R,ugm-3,533,R,ugm-3
09-01-1989,11:00,,,,135,R,ugm-3,78,R,ugm-3,285,R,ugm-3
09-01-1989,12:00,,,,151,R,ugm-3,115,R,ugm-3,346,R,ugm-3
09-01-1989,13:00,,,,266,R,ugm-3,172,R,ugm-3,579,R,ugm-3
09-01-1989,14:00,,,,105,R,ugm-3,86,R,ugm-3,246,R,ugm-3
09-01-1989,15:00,,,,256,R,ugm-3,155,R,ugm-3,546,R,ugm-3
09-01-1989,16:00,,,,276,R,ugm-3,117,R,ugm-3,539,R,ugm-3
09-01-1989,17:00,,,,138,R,ugm-3,84,R,ugm-3,294,R,ugm-3
09-01-1989,18:00,,,,71,R,ugm-3,65,R,ugm-3,174,R,ugm-3
09-01-1989,19:00,,,,73,R,ugm-3,61,R,ugm-3,172,R,ugm-3
09-01-1989,20:00,,,,74,R,ugm-3,61,R,ugm-3,174,R,ugm-3
09-01-1989,21:00,,,,68,R,ugm-3,57,R,ugm-3,160,R,ugm-3
09-01-1989,22:00,,,,53,R,ugm-3,53,R,ugm-3,134,R,ugm-3
09-01-1989,23:00,,,,35,R,ugm-3,48,R,ugm-3,101,R,ugm-3
09-01-1989,24:00,,,,35,R,ugm-3,46,R,ugm-3,99,R,ugm-3
10-01-1989,01:00,,,,23,R,ugm-3,44,R,ugm-3,78,R,ugm-3
10-01-1989,02:00,,,,10,R,ugm-3,50,R,ugm-3,65,R,ugm-3
10-01-1989,03:00,,,,10,R,ugm-3,50,R,ugm-3,65,R,ugm-3
10-01-1989,04:00,,,,10,R,ugm-3,46,R,ugm-3,61,R,ugm-3
10-01-1989,05:00,,,,13,R,ugm-3,48,R,ugm-3,67,R,ugm-3
10-01-1989,06:00,,,,15,R,ugm-3,46,R,ugm-3,69,R,ugm-3
10-01-1989,07:00,,,,53,R,ugm-3,57,R,ugm-3,138,R,ugm-3
10-01-1989,08:00,,,,146,R,ugm-3,67,R,ugm-3,290,R,ugm-3
10-01-1989,09:00,,,,254,R,ugm-3,74,R,ugm-3,462,R,ugm-3
10-01-1989,10:00,,,,234,R,ugm-3,73,R,ugm-3,430,R,ugm-3
10-01-1989,11:00,,,,208,R,ugm-3,88,R,ugm-3,405,R,ugm-3
10-01-1989,12:00,,,,168,R,ugm-3,94,R,ugm-3,350,R,ugm-3
10-01-1989,13:00,,,,434,R,ugm-3,218,R,ugm-3,881,R,ugm-3
10-01-1989,14:00,,,,126,R,ugm-3,92,R,ugm-3,285,R,ugm-3
10-01-1989,15:00,,,,119,R,ugm-3,92,R,ugm-3,273,R,ugm-3
10-01-1989,16:00,,,,118,R,ugm-3,94,R,ugm-3,273,R,ugm-3
10-01-1989,17:00,,,,185,R,ugm-3,84,R,ugm-3,367,R,ugm-3
10-01-1989,18:00,,,,300,R,ugm-3,92,R,ugm-3,550,R,ugm-3
10-01-1989,19:00,,,,304,R,ugm-3,86,R,ugm-3,550,R,ugm-3
10-01-1989,20:00,,,,330,R,ugm-3,86,R,ugm-3,590,R,ugm-3
10-01-1989,21:00,,,,366,R,ugm-3,90,R,ugm-3,649,R,ugm-3
10-01-1989,22:00,,,,320,R,ugm-3,82,R,ugm-3,571,R,ugm-3
10-01-1989,23:00,,,,269,R,ugm-3,78,R,ugm-3,489,R,ugm-3
10-01-1989,24:00,,,,271,R,ugm-3,76,R,ugm-3,491,R,ugm-3
11-01-1989,01:00,,,,254,R,ugm-3,74,R,ugm-3,462,R,ugm-3
11-01-1989,02:00,,,,165,R,ugm-3,65,R,ugm-3,317,R,ugm-3
11-01-1989,03:00,,,,106,R,ugm-3,61,R,ugm-3,223,R,ugm-3
11-01-1989,04:00,,,,69,R,ugm-3,59,R,ugm-3,164,R,ugm-3
11-01-1989,05:00,,,,53,R,ugm-3,61,R,ugm-3,141,R,ugm-3
11-01-1989,06:00,,,,96,R,ugm-3,61,R,ugm-3,208,R,ugm-3
11-01-1989,07:00,,,,186,R,ugm-3,69,R,ugm-3,353,R,ugm-3
11-01-1989,08:00,,,,300,R,ugm-3,86,R,ugm-3,544,R,ugm-3
11-01-1989,09:00,,,,483,R,ugm-3,118,R,ugm-3,856,R,ugm-3
11-01-1989,10:00,,,,350,R,ugm-3,109,R,ugm-3,644,R,ugm-3
11-01-1989,11:00,,,,259,R,ugm-3,124,R,ugm-3,520,R,ugm-3
11-01-1989,12:00,,,,166,R,ugm-3,101,R,ugm-3,355,R,ugm-3
11-01-1989,13:00,,,,105,R,ugm-3,84,R,ugm-3,244,R,ugm-3
11-01-1989,14:00,,,,60,R,ugm-3,63,R,ugm-3,155,R,ugm-3
11-01-1989,15:00,,,,216,R,ugm-3,162,R,ugm-3,493,R,ugm-3
11-01-1989,16:00,,,,136,R,ugm-3,117,R,ugm-3,325,R,ugm-3
11-01-1989,17:00,,,,121,R,ugm-3,84,R,ugm-3,269,R,ugm-3
11-01-1989,18:00,,,,80,R,ugm-3,69,R,ugm-3,191,R,ugm-3
11-01-1989,19:00,,,,71,R,ugm-3,65,R,ugm-3,174,R,ugm-3
11-01-1989,20:00,,,,63,R,ugm-3,55,R,ugm-3,151,R,ugm-3
11-01-1989,21:00,,,,54,R,ugm-3,52,R,ugm-3,134,R,ugm-3
11-01-1989,22:00,,,,29,R,ugm-3,44,R,ugm-3,88,R,ugm-3
11-01-1989,23:00,,,,15,R,ugm-3,40,R,ugm-3,63,R,ugm-3
11-01-1989,24:00,,,,10,R,ugm-3,31,R,ugm-3,46,R,ugm-3
12-01-1989,01:00,,,,13,R,ugm-3,29,R,ugm-3,48,R,ugm-3
12-01-1989,02:00,,,,5,R,ugm-3,23,R,ugm-3,31,R,ugm-3
12-01-1989,03:00,,,,5,R,ugm-3,21,R,ugm-3,29,R,ugm-3
12-01-1989,04:00,,,,4,R,ugm-3,15,R,ugm-3,21,R,ugm-3
12-01-1989,05:00,,,,3,R,ugm-3,21,R,ugm-3,25,R,ugm-3
12-01-1989,06:00,,,,6,R,ugm-3,25,R,ugm-3,34,R,ugm-3
12-01-1989,07:00,,,,29,R,ugm-3,44,R,ugm-3,88,R,ugm-3
12-01-1989,08:00,,,,58,R,ugm-3,59,R,ugm-3,147,R,ugm-3
12-01-1989,09:00,,,,109,R,ugm-3,84,R,ugm-3,250,R,ugm-3
12-01-1989,10:00,,,,98,R,ugm-3,84,R,ugm-3,233,R,ugm-3
12-01-1989,11:00,,,,130,R,ugm-3,109,R,ugm-3,308,R,ugm-3
12-01-1989,12:00,,,,121,R,ugm-3,109,R,ugm-3,294,R,ugm-3
12-01-1989,13:00,,,,168,R,ugm-3,120,R,ugm-3,376,R,ugm-3
12-01-1989,14:00,,,,164,R,ugm-3,90,R,ugm-3,340,R,ugm-3
12-01-1989,15:00,,,,124,R,ugm-3,101,R,ugm-3,290,R,ugm-3
12-01-1989,16:00,,,,94,R,ugm-3,82,R,ugm-3,225,R,ugm-3
12-01-1989,17:00,,,,181,R,ugm-3,78,R,ugm-3,355,R,ugm-3
12-01-1989,18:00,,,,183,R,ugm-3,78,R,ugm-3,357,R,ugm-3
12-01-1989,19:00,,,,191,R,ugm-3,78,R,ugm-3,371,R,ugm-3
12-01-1989,20:00,,,,246,R,ugm-3,80,R,ugm-3,456,R,ugm-3
12-01-1989,21:00,,,,221,R,ugm-3,74,R,ugm-3,413,R,ugm-3
12-01-1989,22:00,,,,153,R,ugm-3,71,R,ugm-3,304,R,ugm-3
12-01-1989,23:00,,,,129,R,ugm-3,71,R,ugm-3,267,R,ugm-3
12-01-1989,24:00,,,,104,R,ugm-3,65,R,ugm-3,223,R,ugm-3
13-01-1989,01:00,,,,105,R,ugm-3,61,R,ugm-3,222,R,ugm-3
13-01-1989,02:00,,,,83,R,ugm-3,61,R,ugm-3,187,R,ugm-3
13-01-1989,03:00,,,,60,R,ugm-3,61,R,ugm-3,153,R,ugm-3
13-01-1989,04:00,,,,39,R,ugm-3,55,R,ugm-3,115,R,ugm-3
13-01-1989,05:00,,,,81,R,ugm-3,61,R,ugm-3,185,R,ugm-3
13-01-1989,06:00,,,,119,R,ugm-3,65,R,ugm-3,246,R,ugm-3
13-01-1989,07:00,,,,155,R,ugm-3,67,R,ugm-3,304,R,ugm-3
13-01-1989,08:00,,,,285,R,ugm-3,90,R,ugm-3,525,R,ugm-3
13-01-1989,09:00,,,,249,R,ugm-3,90,R,ugm-3,470,R,ugm-3
13-01-1989,10:00,,,,164,R,ugm-3,82,R,ugm-3,332,R,ugm-3
13-01-1989,11:00,,,,83,R,ugm-3,67,R,ugm-3,193,R,ugm-3
13-01-1989,12:00,,,,115,R,ugm-3,86,R,ugm-3,262,R,ugm-3
13-01-1989,13:00,,,,196,R,ugm-3,151,R,ugm-3,451,R,ugm-3
13-01-1989,14:00,,,,39,R,ugm-3,61,R,ugm-3,120,R,ugm-3
13-01-1989,15:00,,,,96,R,ugm-3,92,R,ugm-3,239,R,ugm-3
13-01-1989,16:00,,,,91,R,ugm-3,86,R,ugm-3,225,R,ugm-3
13-01-1989,17:00,,,,54,R,ugm-3,63,R,ugm-3,145,R,ugm-3
13-01-1989,18:00,,,,46,R,ugm-3,63,R,ugm-3,134,R,ugm-3
13-01-1989,19:00,,,,41,R,ugm-3,57,R,ugm-3,120,R,ugm-3
13-01-1989,20:00,,,,36,R,ugm-3,53,R,ugm-3,109,R,ugm-3
13-01-1989,21:00,,,,25,R,ugm-3,48,R,ugm-3,86,R,ugm-3
13-01-1989,22:00,,,,14,R,ugm-3,34,R,ugm-3,55,R,ugm-3
13-01-1989,23:00,,,,4,R,ugm-3,25,R,ugm-3,31,R,ugm-3
13-01-1989,24:00,,,,4,R,ugm-3,23,R,ugm-3,29,R,ugm-3
14-01-1989,01:00,,,,5,R,ugm-3,21,R,ugm-3,29,R,ugm-3
14-01-1989,02:00,,,,4,R,ugm-3,19,R,ugm-3,25,R,ugm-3
14-01-1989,03:00,,,,1,R,ugm-3,13,R,ugm-3,15,R,ugm-3
14-01-1989,04:00,,,,0,R,ugm-3,6,R,ugm-3,6,R,ugm-3
14-01-1989,05:00,,,,0,R,ugm-3,11,R,ugm-3,11,R,ugm-3
14-01-1989,06:00,,,,0,R,ugm-3,15,R,ugm-3,15,R,ugm-3
14-01-1989,07:00,,,,3,R,ugm-3,29,R,ugm-3,32,R,ugm-3
14-01-1989,08:00,,,,15,R,ugm-3,52,R,ugm-3,74,R,ugm-3
14-01-1989,09:00,,,,210,R,ugm-3,149,R,ugm-3,470,R,ugm-3
14-01-1989,10:00,,,,59,R,ugm-3,73,R,ugm-3,162,R,ugm-3
14-01-1989,11:00,,,,285,R,ugm-3,147,R,ugm-3,583,R,ugm-3
14-01-1989,12:00,,,,50,R,ugm-3,67,R,ugm-3,143,R,ugm-3
14-01-1989,13:00,,,,38,R,ugm-3,57,R,ugm-3,115,R,ugm-3
14-01-1989,14:00,,,,35,R,ugm-3,59,R,ugm-3,113,R,ugm-3
14-01-1989,15:00,,,,30,R,ugm-3,57,R,ugm-3,103,R,ugm-3
14-01-1989,16:00,,,,38,R,ugm-3,61,R,ugm-3,118,R,ugm-3
14-01-1989,17:00,,,,63,R,ugm-3,71,R,ugm-3,166,R,ugm-3
14-01-1989,18:00,,,,94,R,ugm-3,71,R,ugm-3,214,R,ugm-3
14-01-1989,19:00,,,,78,R,ugm-3,71,R,ugm-3,189,R,ugm-3
14-01-1989,20:00,,,,81,R,ugm-3,67,R,ugm-3,191,R,ugm-3
14-01-1989,21:00,,,,41,R,ugm-3,63,R,ugm-3,126,R,ugm-3
14-01-1989,22:00,,,,34,R,ugm-3,63,R,ugm-3,115,R,ugm-3
14-01-1989,23:00,,,,23,R,ugm-3,59,R,ugm-3,94,R,ugm-3
14-01-1989,24:00,,,,24,R,ugm-3,57,R,ugm-3,94,R,ugm-3
15-01-1989,01:00,,,,10,R,ugm-3,48,R,ugm-3,63,R,ugm-3
15-01-1989,02:00,,,,5,R,ugm-3,36,R,ugm-3,44,R,ugm-3
15-01-1989,03:00,,,,4,R,ugm-3,27,R,ugm-3,32,R,ugm-3
15-01-1989,04:00,,,,4,R,ugm-3,23,R,ugm-3,29,R,ugm-3
15-01-1989,05:00,,,,0,R,ugm-3,17,R,ugm-3,17,R,ugm-3
15-01-1989,06:00,,,,3,R,ugm-3,17,R,ugm-3,21,R,ugm-3
15-01-1989,07:00,,,,1,R,ugm-3,25,R,ugm-3,27,R,ugm-3
15-01-1989,08:00,,,,5,R,ugm-3,29,R,ugm-3,36,R,ugm-3
15-01-1989,09:00,,,,10,R,ugm-3,42,R,ugm-3,57,R,ugm-3
15-01-1989,10:00,,,,18,R,ugm-3,48,R,ugm-3,74,R,ugm-3
15-01-1989,11:00,,,,18,R,ugm-3,48,R,ugm-3,74,R,ugm-3
15-01-1989,12:00,,,,20,R,ugm-3,52,R,ugm-3,82,R,ugm-3
15-01-1989,13:00,,,,21,R,ugm-3,57,R,ugm-3,90,R,ugm-3
15-01-1989,14:00,,,,29,R,ugm-3,59,R,ugm-3,103,R,ugm-3
15-01-1989,15:00,,,,34,R,ugm-3,61,R,ugm-3,113,R,ugm-3
15-01-1989,16:00,,,,39,R,ugm-3,63,R,ugm-3,122,R,ugm-3
15-01-1989,17:00,,,,59,R,ugm-3,65,R,ugm-3,155,R,ugm-3
15-01-1989,18:00,,,,66,R,ugm-3,65,R,ugm-3,166,R,ugm-3
15-01-1989,19:00,,,,83,R,ugm-3,65,R,ugm-3,191,R,ugm-3
15-01-1989,20:00,,,,65,R,ugm-3,65,R,ugm-3,164,R,ugm-3
15-01-1989,21:00,,,,48,R,ugm-3,63,R,ugm-3,136,R,ugm-3
15-01-1989,22:00,,,,34,R,ugm-3,57,R,ugm-3,109,R,ugm-3
15-01-1989,23:00,,,,29,R,ugm-3,59,R,ugm-3,103,R,ugm-3
15-01-1989,24:00,,,,26,R,ugm-3,57,R,ugm-3,97,R,ugm-3
16-01-1989,01:00,,,,13,R,ugm-3,48,R,ugm-3,67,R,ugm-3
16-01-1989,02:00,,,,6,R,ugm-3,42,R,ugm-3,52,R,ugm-3
16-01-1989,03:00,,,,4,R,ugm-3,29,R,ugm-3,34,R,ugm-3
16-01-1989,04:00,,,,0,R,ugm-3,29,R,ugm-3,29,R,ugm-3
16-01-1989,05:00,,,,3,R,ugm-3,23,R,ugm-3,27,R,ugm-3
16-01-1989,06:00,,,,4,R,ugm-3,31,R,ugm-3,36,R,ugm-3
16-01-1989,07:00,,,,23,R,ugm-3,52,R,ugm-3,86,R,ugm-3
16-01-1989,08:00,,,,65,R,ugm-3,71,R,ugm-3,170,R,ugm-3
16-01-1989,09:00,,,,179,R,ugm-3,126,R,ugm-3,399,R,ugm-3
16-01-1989,10:00,,,,344,R,ugm-3,172,R,ugm-3,697,R,ugm-3
16-01-1989,11:00,,,,186,R,ugm-3,105,R,ugm-3,390,R,ugm-3
16-01-1989,12:00,,,,174,R,ugm-3,69,R,ugm-3,334,R,ugm-3
16-01-1989,13:00,,,,136,R,ugm-3,84,R,ugm-3,292,R,ugm-3
16-01-1989,14:00,,,,85,R,ugm-3,84,R,ugm-3,214,R,ugm-3
16-01-1989,15:00,,,,248,R,ugm-3,153,R,ugm-3,531,R,ugm-3
16-01-1989,16:00,,,,221,R,ugm-3,118,R,ugm-3,456,R,ugm-3
16-01-1989,17:00,,,,96,R,ugm-3,88,R,ugm-3,235,R,ugm-3
16-01-1989,18:00,,,,84,R,ugm-3,76,R,ugm-3,204,R,ugm-3
16-01-1989,19:00,,,,54,R,ugm-3,74,R,ugm-3,157,R,ugm-3
16-01-1989,20:00,,,,38,R,ugm-3,73,R,ugm-3,130,R,ugm-3
16-01-1989,21:00,,,,25,R,ugm-3,67,R,ugm-3,105,R,ugm-3
16-01-1989,22:00,,,,14,R,ugm-3,55,R,ugm-3,76,R,ugm-3
16-01-1989,23:00,,,,13,R,ugm-3,53,R,ugm-3,73,R,ugm-3
16-01-1989,24:00,,,,11,R,ugm-3,53,R,ugm-3,71,R,ugm-3
17-01-1989,01:00,,,,10,R,ugm-3,44,R,ugm-3,59,R,ugm-3
17-01-1989,02:00,,,,3,R,ugm-3,40,R,ugm-3,44,R,ugm-3
17-01-1989,03:00,,,,3,R,ugm-3,29,R,ugm-3,32,R,ugm-3
17-01-1989,04:00,,,,0,R,ugm-3,27,R,ugm-3,27,R,ugm-3
17-01-1989,05:00,,,,0,R,ugm-3,23,R,ugm-3,23,R,ugm-3
17-01-1989,06:00,,,,4,R,ugm-3,31,R,ugm-3,36,R,ugm-3
17-01-1989,07:00,,,,18,R,ugm-3,53,R,ugm-3,80,R,ugm-3
17-01-1989,08:00,,,,88,R,ugm-3,80,R,ugm-3,214,R,ugm-3
17-01-1989,09:00,,,,178,R,ugm-3,109,R,ugm-3,380,R,ugm-3
17-01-1989,10:00,,,,188,R,ugm-3,88,R,ugm-3,374,R,ugm-3
17-01-1989,11:00,,,,163,R,ugm-3,76,R,ugm-3,325,R,ugm-3
17-01-1989,12:00,,,,216,R,ugm-3,76,R,ugm-3,407,R,ugm-3
17-01-1989,13:00,,,,218,R,ugm-3,155,R,ugm-3,487,R,ugm-3
17-01-1989,14:00,,,,63,R,ugm-3,80,R,ugm-3,176,R,ugm-3
17-01-1989,15:00,,,,81,R,ugm-3,80,R,ugm-3,204,R,ugm-3
17-01-1989,16:00,,,,116,R,ugm-3,94,R,ugm-3,271,R,ugm-3
17-01-1989,17:00,,,,109,R,ugm-3,94,R,ugm-3,260,R,ugm-3
17-01-1989,18:00,,,,150,R,ugm-3,84,R,ugm-3,313,R,ugm-3
17-01-1989,19:00,,,,178,R,ugm-3,86,R,ugm-3,357,R,ugm-3
17-01-1989,20:00,,,,331,R,ugm-3,94,R,ugm-3,600,R,ugm-3
17-01-1989,21:00,,,,450,R,ugm-3,105,R,ugm-3,793,R,ugm-3
17-01-1989,22:00,,,,724,R,ugm-3,126,R,ugm-3,1232,R,ugm-3
17-01-1989,23:00,,,,608,R,ugm-3,124,R,ugm-3,1052,R,ugm-3
17-01-1989,24:00,,,,579,R,ugm-3,118,R,ugm-3,1003,R,ugm-3
18-01-1989,01:00,,,,716,R,ugm-3,134,R,ugm-3,1228,R,ugm-3
18-01-1989,02:00,,,,659,R,ugm-3,128,R,ugm-3,1135,R,ugm-3
18-01-1989,03:00,,,,570,R,ugm-3,115,R,ugm-3,986,R,ugm-3
18-01-1989,04:00,,,,563,R,ugm-3,113,R,ugm-3,972,R,ugm-3
18-01-1989,05:00,,,,569,R,ugm-3,118,R,ugm-3,987,R,ugm-3
18-01-1989,06:00,,,,603,R,ugm-3,118,R,ugm-3,1039,R,ugm-3
18-01-1989,07:00,,,,605,R,ugm-3,115,R,ugm-3,1039,R,ugm-3
18-01-1989,08:00,,,,696,R,ugm-3,120,R,ugm-3,1184,R,ugm-3
18-01-1989,09:00,,,,809,R,ugm-3,141,R,ugm-3,1377,R,ugm-3
18-01-1989,10:00,,,,1086,R,ugm-3,180,R,ugm-3,1839,R,ugm-3
18-01-1989,11:00,,,,1171,R,ugm-3,244,R,ugm-3,2034,R,ugm-3
18-01-1989,12:00,,,,1099,R,ugm-3,313,R,ugm-3,1992,R,ugm-3
18-01-1989,13:00,,,,748,R,ugm-3,271,R,ugm-3,1413,R,ugm-3
18-01-1989,14:00,,,,365,R,ugm-3,185,R,ugm-3,743,R,ugm-3
18-01-1989,15:00,,,,631,R,ugm-3,296,R,ugm-3,1261,R,ugm-3
18-01-1989,16:00,,,,413,R,ugm-3,187,R,ugm-3,817,R,ugm-3
18-01-1989,17:00,,,,240,R,ugm-3,151,R,ugm-3,518,R,ugm-3
18-01-1989,18:00,,,,298,R,ugm-3,141,R,ugm-3,596,R,ugm-3
18-01-1989,19:00,,,,515,R,ugm-3,155,R,ugm-3,942,R,ugm-3
18-01-1989,20:00,,,,684,R,ugm-3,166,R,ugm-3,1211,R,ugm-3
18-01-1989,21:00,,,,920,R,ugm-3,193,R,ugm-3,1599,R,ugm-3
18-01-1989,22:00,,,,909,R,ugm-3,181,R,ugm-3,1570,R,ugm-3
18-01-1989,23:00,,,,810,R,ugm-3,164,R,ugm-3,1402,R,ugm-3
18-01-1989,24:00,,,,825,R,ugm-3,172,R,ugm-3,1433,R,ugm-3
19-01-1989,01:00,,,,871,R,ugm-3,191,R,ugm-3,1522,R,ugm-3
19-01-1989,02:00,,,,888,R,ugm-3,210,R,ugm-3,1566,R,ugm-3
19-01-1989,03:00,,,,771,R,ugm-3,201,R,ugm-3,1379,R,ugm-3
19-01-1989,04:00,,,,626,R,ugm-3,176,R,ugm-3,1133,R,ugm-3
19-01-1989,05:00,,,,694,R,ugm-3,201,R,ugm-3,1261,R,ugm-3